Torna al catalogo

STARLINK-37969

AttivoComunicazioniSSO
NORAD 69710·PAYLOAD·🇺🇸 United States

Lanciato Jun 28, 2026 da Vandenberg Space Force Base

Loading…

Prossimi Passaggi (prossime 24 ore)

TLE

AggiornatoSource: CelesTrak SupGP

Epoca: Sep 15, 2026, 03:47 UTC

1 69710C 26147G   26258.15812500 -.00045787  00000+0 -14215-2 0  2583
2 69710  97.2837 294.5579 0001449  86.7209 242.4503 15.33459342    12

Traccia STARLINK-37969 in tempo reale con AllMySat

Download on the App Store